sat.trackr.live / text

‹ back to catalog

STARLINK-2418

NORAD 48097 · 2021-027F

PAYLOAD ACTIVE UNKNOWN

§ Identity

Operator
Country
US
Launch date
2021-04-07
Launch site
AFETR
Launch vehicle
Mass (kg)
RCS (m²)

Purposes: comms

External: N2YO · Heavens-Above · Gunter

§ Orbital elements

Epoch: 2026-05-25T00:52:46.235136Z

Period
94.01 min
Inclination
53.1609°
Eccentricity
0.0001149
Mean motion
15.31700335 rev/d
Perigee alt
470.0 km
Apogee alt
471.5 km
Semi-major
6,848.9 km
B*
2.3946e-5
RAAN
157.8277°
Arg perigee
81.6014°
Mean anomaly
278.5117°
Rev number
28,437

§ Raw data

STARLINK-24181 48097U 21027F   26145.03664624  .00000378  00000+0  23946-4 0  99942 48097  53.1609 157.8277 0001149  81.6014 278.5117 15.31700335284379

JSON: /api/v1/satellites/48097 · /tle

For live sub-satellite position, see the globe view (requires WebGL).

§ Visibility from observer

Set your observer location to see the next 7 days of passes ≥ 10°. The values pass through the URL so the page stays shareable.

No JS? Fill the form by hand. The geolocation button needs JavaScript.